weather.gov     
National Weather Service

Terminal Aerodrome Forecast
NWS Homepage
This page is being discontinued on March 12, 2014.
The same data is available at this site. Please update your bookmarks.
Thank you, and we apologize for the inconvenience.
Please send an email to SR-SRH.Webmaster@noaa.gov with any concerns.


Current Version
Previous Version:    01  02  03  04  05  06  07  08  09  10  11  12  13  14  15  16  17  18  19  20  21  22  23  24  25  26  27  28  29  
[Printable]
873
FTUS41 KCAR 211700
TAFPQI
TAF
KPQI 211721Z 2118/2218 19012G21KT P6SM SCT045 BKN100
     FM220000 17008KT P6SM OVC040
     FM220300 16008KT P6SM OVC030
     FM220430 16007KT P6SM -SHRA OVC018
     FM220600 16007KT 5SM -SHRA OVC008
     FM220800 VRB03KT 3SM -SHRA OVC005
     FM221200 25005KT 6SM -SHRA OVC012
     FM221400 28010KT P6SM BKN022
     FM221600 30011G18KT P6SM BKN035
      AMD LTD TO CLD VIS AND WIND=


U.S. Dept. of Commerce
NOAA National Weather Service
1325 East West Highway
Silver Spring, MD 20910
E-mail: w-nws.webmaster@noaa.gov
Page last modified: May 16, 2007
NATIONAL WEATHER SERVICE: for Safety, for Work, for Fun - FOR LIFE